Location: Klein M�hlingen
(51.9472°N, 11.7453°E)
Time: 11:50:28
(UTC+00:00)

Envisat - Visible Passes

Search period start: 29 November 2022 00:00
Search period end: 09 December 2022 00:00
Orbit: 763 x 765 km, 98.2° (Epoch: 29 November)

Date Brightness Start Highest point End Pass type
(mag) Time Alt. Az. Time Alt. Az. Time Alt. Az.
29 Nov 6.0 01:53:11 10° ENE 01:53:21 10° ENE 01:53:21 10° ENE visible
29 Nov 3.6 03:29:40 10° NNE 03:33:31 50° NE 03:33:31 50° NE visible
29 Nov 4.1 05:09:25 10° N 05:13:20 23° WNW 05:13:41 23° WNW visible
30 Nov 4.8 02:52:55 10° NNE 02:55:53 28° ENE 02:55:53 28° ENE visible
30 Nov 3.5 04:31:56 10° N 04:36:03 39° NW 04:36:03 39° NW visible
30 Nov 5.8 15:54:01 10° SW 15:57:23 18° W 16:00:47 10° NW visible
01 Dec 5.7 02:16:42 10° NE 02:18:16 15° ENE 02:18:16 15° ENE visible
01 Dec 3.5 03:54:43 10° NNE 03:58:27 49° N 03:58:27 49° N visible
01 Dec 4.5 05:35:05 10° NNW 05:38:02 16° NW 05:38:37 15° WNW visible
02 Dec 4.3 03:17:45 10° NNE 03:20:50 35° NE 03:20:50 35° NE visible
02 Dec 3.9 04:57:16 10° N 05:01:00 27° NW 05:01:00 27° NW visible
02 Dec 6.2 16:21:37 10° W 16:22:49 11° W 16:24:02 10° WNW visible
03 Dec 5.2 02:41:08 10° NNE 02:43:14 21° NE 02:43:14 21° NE visible
03 Dec 3.6 04:19:53 10° N 04:23:24 38° NNW 04:23:24 38° NNW visible
03 Dec 4.8 06:01:34 10° NW 06:02:40 11° NW 06:03:34 10° WNW visible
03 Dec 5.7 15:41:25 10° SW 15:45:18 22° W 15:49:12 10° NW visible
04 Dec 6.0 02:05:14 10° NE 02:05:37 11° NE 02:05:37 11° NE visible
04 Dec 4.0 03:42:45 10° NNE 03:45:48 37° NNE 03:45:48 37° NNE visible
04 Dec 4.3 05:22:48 10° NNW 05:25:58 19° NW 05:25:58 19° NW visible
05 Dec 4.8 03:05:52 10° NNE 03:08:12 25° NE 03:08:12 25° NE visible
05 Dec 4.0 04:45:10 10° N 04:48:23 28° NW 04:48:23 28° NW visible
05 Dec 5.9 16:08:09 10° WSW 16:10:41 14° W 16:13:13 10° NW visible
06 Dec 5.6 02:29:24 10° NE 02:30:38 15° NE 02:30:38 15° NE visible
06 Dec 4.0 04:07:51 10° N 04:10:48 34° N 04:10:48 34° N visible
06 Dec 4.7 05:48:44 10° NNW 05:50:54 13° NW 05:50:58 13° NW visible
07 Dec 4.5 03:30:48 10° NNE 03:33:13 28° NNE 03:33:13 28° NNE visible
07 Dec 4.3 05:10:35 10° N 05:13:24 21° NW 05:13:24 21° NW visible
08 Dec 5.2 02:54:02 10° NNE 02:55:40 19° NE 02:55:40 19° NE visible
08 Dec 4.1 04:33:04 10° N 04:35:50 28° NNW 04:35:50 28° NNW visible
08 Dec 5.8 15:55:17 10° SW 15:58:33 17° W 16:01:50 10° NW visible
